Hourly Weather Abashevo

Today, 30 September, Wednesday

Time Temperature Precipitation Wind Pressure Humidity
00:00 +11°C° 0 mm 4 mps 755 mmHg 64%
01:00 +11°C° 0 mm 4 mps 755 mmHg 63%
02:00 +11°C° 0 mm 3 mps 755 mmHg 61%
03:00 +10°C° 0 mm 4 mps 755 mmHg 60%
04:00 +10°C° 0 mm 4 mps 755 mmHg 60%
05:00 +10°C° 0 mm 4 mps 755 mmHg 61%
06:00 +10°C° 0 mm 4 mps 754 mmHg 62%
07:00 +11°C° 0 mm 4 mps 754 mmHg 60%
08:00 +12°C° 0 mm 4 mps 754 mmHg 58%
09:00 +13°C° 0 mm 5 mps 754 mmHg 56%
10:00 +14°C° 0 mm 5 mps 754 mmHg 52%
11:00 +16°C° 0 mm 5 mps 754 mmHg 48%
12:00 +17°C° 0 mm 5 mps 754 mmHg 44%
13:00 +17°C° 0 mm 5 mps 754 mmHg 43%
14:00 +19°C° 0 mm 5 mps 754 mmHg 43%
15:00 +19°C° 0 mm 4 mps 754 mmHg 42%
16:00 +18°C° 0 mm 4 mps 754 mmHg 46%
17:00 +15°C° 0 mm 4 mps 754 mmHg 50%
18:00 +14°C° 0 mm 3 mps 754 mmHg 54%
19:00 +14°C° 0 mm 4 mps 754 mmHg 54%
20:00 +13°C° 0 mm 4 mps 754 mmHg 55%
21:00 +13°C° 0 mm 4 mps 754 mmHg 55%
22:00 +12°C° 0 mm 4 mps 754 mmHg 57%
23:00 +12°C° 0 mm 4 mps 754 mmHg 58%

Tomorrow, 1 October, Thursday

Time Temperature Precipitation Wind Pressure Humidity
00:00 +12°C° 0 mm 4 mps 754 mmHg 60%
01:00 +11°C° 0 mm 4 mps 755 mmHg 61%
02:00 +11°C° 0 mm 4 mps 755 mmHg 62%
03:00 +11°C° 0 mm 3 mps 755 mmHg 63%
04:00 +11°C° 0 mm 3 mps 755 mmHg 63%
05:00 +10°C° 0 mm 4 mps 755 mmHg 64%
06:00 +10°C° 0 mm 4 mps 755 mmHg 65%
07:00 +11°C° 0 mm 4 mps 755 mmHg 63%
08:00 +12°C° 0 mm 3 mps 755 mmHg 60%
09:00 +13°C° 0 mm 3 mps 755 mmHg 58%
10:00 +15°C° 0 mm 4 mps 755 mmHg 53%
11:00 +17°C° 0 mm 4 mps 755 mmHg 48%
12:00 +19°C° 0 mm 4 mps 755 mmHg 43%
13:00 +19°C° 0 mm 4 mps 755 mmHg 41%
14:00 +19°C° 0 mm 4 mps 755 mmHg 39%
15:00 +19°C° 0 mm 4 mps 755 mmHg 37%
16:00 +18°C° 0 mm 3 mps 755 mmHg 41%
17:00 +16°C° 0 mm 3 mps 754 mmHg 45%
18:00 +14°C° 0 mm 3 mps 754 mmHg 49%
19:00 +13°C° 0 mm 3 mps 754 mmHg 52%
20:00 +13°C° 0 mm 3 mps 755 mmHg 54%
21:00 +12°C° 0 mm 3 mps 755 mmHg 56%
22:00 +12°C° 0 mm 3 mps 755 mmHg 57%
23:00 +11°C° 0 mm 3 mps 755 mmHg 58%

Day after tomorrow, 2 October, Friday

Time Temperature Precipitation Wind Pressure Humidity
00:00 +11°C° 0 mm 3 mps 755 mmHg 59%
01:00 +11°C° 0 mm 3 mps 755 mmHg 60%
02:00 +11°C° 0 mm 3 mps 755 mmHg 61%
03:00 +10°C° 0 mm 3 mps 755 mmHg 62%
04:00 +10°C° 0 mm 3 mps 755 mmHg 65%
05:00 +10°C° 0 mm 3 mps 755 mmHg 69%
06:00 +9°C° 0 mm 3 mps 755 mmHg 72%
07:00 +11°C° 0 mm 3 mps 755 mmHg 70%
08:00 +12°C° 0 mm 3 mps 755 mmHg 68%
09:00 +13°C° 0 mm 4 mps 756 mmHg 66%
10:00 +15°C° 0 mm 4 mps 755 mmHg 61%
11:00 +17°C° 0 mm 4 mps 755 mmHg 57%
12:00 +19°C° 0 mm 4 mps 755 mmHg 52%
13:00 +19°C° 0 mm 4 mps 755 mmHg 51%
14:00 +19°C° 0 mm 4 mps 755 mmHg 49%
15:00 +19°C° 0 mm 4 mps 755 mmHg 48%
16:00 +18°C° 0 mm 3 mps 755 mmHg 53%
17:00 +17°C° 0 mm 3 mps 755 mmHg 57%
18:00 +14°C° 0 mm 3 mps 755 mmHg 62%
19:00 +14°C° 0 mm 3 mps 755 mmHg 63%
20:00 +13°C° 0 mm 3 mps 755 mmHg 64%
21:00 +13°C° 0 mm 3 mps 755 mmHg 65%
22:00 +12°C° 0 mm 3 mps 755 mmHg 66%
23:00 +13°C° 0 mm 2 mps 755 mmHg 67%

3 October, Saturday

Time Temperature Precipitation Wind Pressure Humidity
00:00 +13°C° 0 mm 2 mps 756 mmHg 68%
01:00 +12°C° 0 mm 2 mps 756 mmHg 69%
02:00 +12°C° 0 mm 2 mps 756 mmHg 69%
03:00 +12°C° 0 mm 2 mps 756 mmHg 70%
04:00 +10°C° 0 mm 2 mps 756 mmHg 71%
05:00 +10°C° 0 mm 2 mps 756 mmHg 72%
06:00 +10°C° 0 mm 3 mps 756 mmHg 74%
07:00 +11°C° 0 mm 3 mps 756 mmHg 70%
08:00 +12°C° 0 mm 3 mps 756 mmHg 66%
09:00 +13°C° 0 mm 3 mps 756 mmHg 63%
10:00 +16°C° 0 mm 3 mps 756 mmHg 58%
11:00 +17°C° 0 mm 3 mps 756 mmHg 53%
12:00 +18°C° 0 mm 3 mps 756 mmHg 49%
13:00 +18°C° 0 mm 3 mps 756 mmHg 48%
14:00 +19°C° 0 mm 3 mps 755 mmHg 48%
15:00 +19°C° 0 mm 3 mps 755 mmHg 48%
16:00 +17°C° 0 mm 2 mps 755 mmHg 52%
17:00 +16°C° 0 mm 2 mps 755 mmHg 56%
18:00 +15°C° 0 mm 2 mps 755 mmHg 60%
19:00 +14°C° 0 mm 2 mps 755 mmHg 61%
20:00 +14°C° 0 mm 2 mps 755 mmHg 62%
21:00 +14°C° 0 mm 2 mps 756 mmHg 64%
22:00 +13°C° 0 mm 2 mps 756 mmHg 66%
23:00 +13°C° 0 mm 2 mps 756 mmHg 69%

4 October, Sunday

Time Temperature Precipitation Wind Pressure Humidity
00:00 +12°C° 0 mm 2 mps 755 mmHg 71%
01:00 +12°C° 0 mm 2 mps 755 mmHg 73%
02:00 +12°C° 0 mm 2 mps 755 mmHg 75%
03:00 +12°C° 0 mm 2 mps 755 mmHg 77%
04:00 +12°C° 0 mm 2 mps 756 mmHg 78%
05:00 +10°C° 0 mm 2 mps 756 mmHg 79%
06:00 +10°C° 0 mm 2 mps 756 mmHg 80%
07:00 +12°C° 0 mm 2 mps 756 mmHg 76%
08:00 +12°C° 0 mm 3 mps 756 mmHg 73%
09:00 +13°C° 0 mm 3 mps 756 mmHg 70%
10:00 +14°C° 0 mm 3 mps 756 mmHg 67%
11:00 +16°C° 0 mm 3 mps 756 mmHg 63%
12:00 +17°C° 0 mm 3 mps 756 mmHg 60%
13:00 +17°C° 0 mm 3 mps 756 mmHg 58%
14:00 +17°C° 0 mm 3 mps 756 mmHg 57%
15:00 +18°C° 0 mm 3 mps 756 mmHg 55%
16:00 +16°C° 0 mm 3 mps 756 mmHg 58%
17:00 +14°C° 0 mm 3 mps 756 mmHg 61%
18:00 +13°C° 0 mm 3 mps 756 mmHg 64%
19:00 +12°C° 0 mm 3 mps 756 mmHg 66%
20:00 +12°C° 0 mm 3 mps 756 mmHg 67%
21:00 +11°C° 0 mm 3 mps 756 mmHg 69%
22:00 +11°C° 0 mm 3 mps 756 mmHg 71%
23:00 +10°C° 0 mm 3 mps 756 mmHg 73%

5 October, Monday

Time Temperature Precipitation Wind Pressure Humidity
00:00 +10°C° 0 mm 3 mps 756 mmHg 74%
01:00 +9°C° 0 mm 3 mps 756 mmHg 78%
02:00 +9°C° 0 mm 3 mps 756 mmHg 81%
03:00 +8°C° 0 mm 3 mps 756 mmHg 85%
04:00 +8°C° 0 mm 3 mps 756 mmHg 87%
05:00 +8°C° 0 mm 3 mps 757 mmHg 88%
06:00 +7°C° 0 mm 3 mps 757 mmHg 90%
07:00 +8°C° 0 mm 3 mps 757 mmHg 85%
08:00 +10°C° 0 mm 3 mps 757 mmHg 80%
09:00 +11°C° 0 mm 3 mps 757 mmHg 75%
10:00 +12°C° 0 mm 3 mps 757 mmHg 68%
11:00 +14°C° 0 mm 3 mps 757 mmHg 62%
12:00 +16°C° 0 mm 3 mps 757 mmHg 55%
13:00 +16°C° 0 mm 3 mps 757 mmHg 54%
14:00 +16°C° 0 mm 2 mps 757 mmHg 52%
15:00 +17°C° 0 mm 2 mps 756 mmHg 50%
16:00 +15°C° 0 mm 2 mps 756 mmHg 55%
17:00 +14°C° 0 mm 2 mps 756 mmHg 59%
18:00 +13°C° 0 mm 2 mps 756 mmHg 64%
19:00 +12°C° 0 mm 2 mps 756 mmHg 65%
20:00 +10°C° 0 mm 3 mps 756 mmHg 67%
21:00 +9°C° 0 mm 3 mps 756 mmHg 69%
22:00 +9°C° 0 mm 3 mps 756 mmHg 69%
23:00 +9°C° 0 mm 3 mps 756 mmHg 70%
Show more